Regional Weather Roundup
Issued by NWS Green Bay, WI

Current Version | Previous Version | Text Only | Print | Product List | Glossary On
Versions: 1 2 3 4 5 6 7 8 9 10 11 12 13 14 15 16 17 18 19 20 21 22 23 24 25 26 27 28 29 30 31 32 33 34 35 36 37 38 39 40 41 42 43 44 45 46 47 48 49 50
000 ASUS43 KGRB 210300 RWRGRB NORTH-CENTRAL AND NORTHEAST WISCONSIN REGIONAL WEATHER ROUNDUP NATIONAL WEATHER SERVICE GREEN BAY WI 1000 PM CDT TUE APR 20 2021 WIZ005-009-010>012-018-019-210400- NORTH CENTRAL WISCONSIN CITY SKY/WX TMP DP RH WIND PRES REMARKS IRONWOOD CLOUDY 28 18 66 NE3 30.12R MANITOWISH WTR CLOUDY 28 13 53 CALM 30.08S ARBOR VITAE MOCLDY 32 22 68 NE3 30.08R EAGLE RIVER CLOUDY 28 13 53 NE5 30.08R LAND O LAKES CLEAR 26 15 63 N3 30.10R RHINELANDER CLOUDY 30 15 53 NE6 30.07S PHILLIPS CLOUDY 30 18 61 CALM 30.08S ANTIGO NOT AVBL TOMAHAWK CLOUDY 28 18 65 CALM 30.09R MERRILL CLOUDY 32 21 65 NE3 30.07R $$ WIZ013-073-210400- NORTHEAST WISCONSIN CITY SKY/WX TMP DP RH WIND PRES REMARKS IRON MOUNTAIN NOT AVBL MARINETTE CLOUDY 33 26 75 NE9 30.12R $$ WIZ017-030-035>037-045-210400- CENTRAL WISCONSIN CITY SKY/WX TMP DP RH WIND PRES REMARKS MEDFORD PTCLDY 29 21 71 NE3 30.07R WAUSAU CLOUDY 36 21 54 N7 30.06R MOSINEE FLURRIES 32 25 74 CALM 30.08R MARSHFIELD PTCLDY 34 19 54 N8 30.07R WISC RAPIDS PTCLDY 35 20 54 N7 30.08R STEVENS POINT NOT AVBL WAUPACA CLOUDY 36 22 57 N5 30.07S SHAWANO MOCLDY 38 22 53 N10 30.08R CLINTONVILLE NOT AVBL WAUTOMA CLOUDY 32 23 69 CALM 30.07S $$ WIZ038-039-048-051-210400- FOX VALLEY CITY SKY/WX TMP DP RH WIND PRES REMARKS NWS GREEN BAY PTCLDY 31 21 66 SE5 30.09R APPLETON MOCLDY 36 16 44 CALM 30.05R OSHKOSH MOCLDY 35 21 56 VRB3 30.06R FOND DU LAC CLEAR 34 23 64 S9 30.07R $$ WIZ022-050-052-210400- EAST CENTRAL WISCONSIN CITY SKY/WX TMP DP RH WIND PRES REMARKS EPHRAIM FLURRIES 30 26 87 CALM 30.10S WASHINGTON ISL NOT AVBL STURGEON BAY PTCLDY 31 23 72 E5 30.11R MANITOWOC CLEAR 29 24 82 CALM 30.10R SHEBOYGAN CLEAR 28 24 85 CALM 30.08S $$ LMZ563-521-522-541>543-210400- LAKESHORE STATION/POSITION TIME TEMP WIND PRES VSBY WAVE AIR SEA DIR/SP/G HT/PER (UTC) (F) (DEG/KT/KT) (MB) (MI) (FT/S) SHEBOYGAN LKSHOR 0200 35 150/ 6/ 7 N/A KEWAUNEE LKSHORE 0218 34 120/ 3/ 5 1017.7 NORTHPORT PIER 0230 31 360/ 11/ 15 1020.7S CHAMBERS ISLAND 0240 32 360/ 6/ 8 N/A MENOMINEE LKSHOR 0218 34 50 70/ 8/ 11 1018.3 $$

USA.gov is the U.S. government's official web portal to all federal, state and local government web resources and services.